sat.trackr.live / text

‹ back to catalog

STARLINK-5905

NORAD 55986 · 2023-042A

PAYLOAD ACTIVE UNKNOWN

§ Identity

Operator
Country
US
Launch date
2023-03-24
Launch site
AFETR
Launch vehicle
Mass (kg)
RCS (m²)

Purposes: comms

External: N2YO · Heavens-Above · Gunter

§ Orbital elements

Epoch: 2026-05-24T23:29:14.699040Z

Period
94.27 min
Inclination
43.0021°
Eccentricity
0.0001525
Mean motion
15.27577141 rev/d
Perigee alt
482.0 km
Apogee alt
484.1 km
Semi-major
6,861.2 km
B*
6.4107e-5
RAAN
349.0331°
Arg perigee
257.6832°
Mean anomaly
102.3849°
Rev number
17,535

§ Raw data

STARLINK-59051 55986U 23042A   26144.97864235  .00001502  00000+0  64107-4 0  99942 55986  43.0021 349.0331 0001525 257.6832 102.3849 15.27577141175352

JSON: /api/v1/satellites/55986 · /tle

For live sub-satellite position, see the globe view (requires WebGL).

§ Visibility from observer

Set your observer location to see the next 7 days of passes ≥ 10°. The values pass through the URL so the page stays shareable.

No JS? Fill the form by hand. The geolocation button needs JavaScript.